Overview Statistics Trail Chart Weather Telemetry Raw packets
 

This is the latest recevied weather packets stored in our database for station/object SV9TNF-51. If no packets are shown the sender has not sent any weather packets the latest 10 day(s).

<< 87 88 89 90 91 92 93 >>
Time Temp. Humidity Pressure Rain* Wind** Luminosity Snow
1788020515 27.78° C 44% 1013.2 hPa 0 mm 1.79 m/s, 132° - -
1788020216 27.78° C 45% 1013.2 hPa 0 mm 1.34 m/s, 159° - -
1788019915 27.22° C 44% 1013.2 hPa 0 mm 4.92 m/s, 175° - -
1788019615 27.78° C 43% 1013.2 hPa 0 mm 3.58 m/s, 159° - -
1788019315 28.33° C 42% 1013.2 hPa 0 mm 1.34 m/s, 117° - -
1788019015 28.89° C 41% 1013.2 hPa 0 mm 0 m/s - -
1788018715 28.89° C 42% 1013.2 hPa 0 mm 0 m/s - -
1788018415 28.33° C 42% 1013.2 hPa 0 mm 3.13 m/s, 329° - -
1788018115 28.33° C 42% 1013.2 hPa 0 mm 4.92 m/s, 209° - -
1788017815 28.33° C 43% 1013.2 hPa 0 mm 4.92 m/s, 188° - -
1788017514 28.33° C 43% 1013.2 hPa 0 mm 1.79 m/s, 7° - -
1788017215 29.44° C 43% 1013.2 hPa 0 mm 2.24 m/s, 216° - -
1788016914 29.44° C 41% 1013.6 hPa 0 mm 1.79 m/s, 129° - -
1788016614 28.89° C 42% 1013.6 hPa 0 mm 3.13 m/s, 180° - -
1788016314 28.89° C 40% 1013.6 hPa 0 mm 4.02 m/s, 131° - -
1788016014 29.44° C 41% 1013.6 hPa 0 mm 4.02 m/s, 160° - -
1788015714 30° C 42% 1013.6 hPa 0 mm 0 m/s - -
1788015414 29.44° C 41% 1013.6 hPa 0 mm 1.79 m/s, 126° - -
1788015114 29.44° C 44% 1013.6 hPa 0 mm 5.36 m/s, 327° - -
1788014813 29.44° C 42% 1013.6 hPa 0 mm 5.81 m/s, 7° - -
1788014513 29.44° C 45% 1013.6 hPa 0 mm 3.13 m/s, 52° - -
1788014213 30° C 46% 1013.6 hPa 0 mm 1.79 m/s, 118° - -
1788013913 29.44° C 46% 1013.6 hPa 0 mm 6.71 m/s, 129° - -
1788013613 29.44° C 46% 1013.6 hPa 0 mm 4.02 m/s, 123° - -
1788013313 30° C 45% 1013.6 hPa 0 mm 8.94 m/s, 126° - -

* Rain latest hour (hover to see other rain measurements)
** Current wind speed in m/s (hover to see current wind gust speed)